| time (UTC) | temp F | wind direction | speed knots | gust knots | rain 1hr in | rain 24hr in | rain mn in | humidity % | barometer mb |
| 20260905202211 | 84 | 18 | 0.9 | 5.2 | 0.00 | 0.00 | 0.00 | 70 | 1016.6 |
| 20260905201704 | 84 | 153 | 0.9 | 2.6 | 0.00 | 0.00 | 0.00 | 70 | 1016.6 |
| 20260905201159 | 83 | 353 | 0.9 | 2.6 | 0.00 | 0.00 | 0.00 | 69 | 1016.8 |
| 20260905200925 | 83 | 71 | 0.0 | 3.5 | 0.00 | 0.00 | 0.00 | 72 | 1016.9 |
| 20260905200648 | 83 | 359 | 0.9 | 3.5 | 0.00 | 0.00 | 0.00 | 69 | 1017.1 |
| 20260905195640 | 84 | 12 | 0.9 | 2.6 | 0.00 | 0.00 | 0.00 | 68 | 1017.3 |
| 20260905195135 | 84 | 51 | 0.0 | 1.7 | 0.00 | 0.00 | 0.00 | 71 | 1017.1 |
| 20260905194628 | 83 | 65 | 0.0 | 2.6 | 0.00 | 0.00 | 0.00 | 71 | 1017.3 |
| 20260905194123 | 83 | 232 | 0.9 | 2.6 | 0.00 | 0.00 | 0.00 | 70 | 1017.4 |
| 20260905193617 | 83 | 1 | 0.9 | 2.6 | 0.00 | 0.00 | 0.00 | 71 | 1017.4 |
| 20260905193112 | 82 | 125 | 0.0 | 1.7 | 0.00 | 0.00 | 0.00 | 70 | 1017.4 |
| 20260905192605 | 83 | 351 | 0.0 | 2.6 | 0.00 | 0.00 | 0.00 | 73 | 1017.4 |
| 20260905192059 | 82 | 108 | 0.0 | 2.6 | 0.00 | 0.00 | 0.00 | 75 | 1017.5 |
| 20260905191559 | 81 | 336 | 0.0 | 1.7 | 0.00 | 0.00 | 0.00 | 75 | 1017.5 |
| 20260905191059 | 81 | 335 | 0.0 | 1.7 | 0.00 | 0.00 | 0.00 | 73 | 1017.5 |
| 20260905190829 | 80 | 235 | 0.0 | 1.7 | 0.00 | 0.00 | 0.00 | 76 | 1017.5 |
| 20260905190058 | 80 | 228 | 0.0 | 1.7 | 0.00 | 0.00 | 0.00 | 74 | 1017.4 |
| 20260905185559 | 80 | 349 | 0.0 | 1.7 | 0.00 | 0.00 | 0.00 | 77 | 1017.5 |
| 20260905185058 | 79 | 356 | 0.0 | 1.7 | 0.00 | 0.00 | 0.00 | 76 | 1017.5 |
| 20260905184558 | 80 | 333 | 0.0 | 1.7 | 0.00 | 0.00 | 0.00 | 77 | 1017.6 |
| 20260905184058 | 79 | 72 | 0.0 | 0.9 | 0.00 | 0.00 | 0.00 | 79 | 1017.6 |
| 20260905183557 | 79 | 9 | 0.0 | 0.9 | 0.00 | 0.00 | 0.00 | 79 | 1017.7 |
| 20260905183329 | 78 | 170 | 0.0 | 1.7 | 0.00 | 0.00 | 0.00 | 79 | 1017.7 |
| 20260905182554 | 78 | 169 | 0.0 | 1.7 | 0.00 | 0.00 | 0.00 | 79 | 1017.8 |
| 20260905182051 | 78 | 131 | 0.0 | 1.7 | 0.00 | 0.00 | 0.00 | 81 | 1017.7 |
| 20260905181550 | 78 | 77 | 0.9 | 3.5 | 0.00 | 0.00 | 0.00 | 80 | 1017.7 |
| 20260905181050 | 78 | 116 | 0.0 | 3.5 | 0.00 | 0.00 | 0.00 | 81 | 1017.8 |
| 20260905180549 | 77 | 75 | 0.0 | 2.6 | 0.00 | 0.00 | 0.00 | 83 | 1017.8 |
| 20260905180049 | 76 | 242 | 0.0 | 2.6 | 0.00 | 0.00 | 0.00 | 83 | 1017.9 |
| 20260905175820 | 76 | 344 | 0.0 | 0.9 | 0.00 | 0.00 | 0.00 | 84 | 1018.0 |
| 20260905175050 | 76 | 228 | 0.0 | 0.9 | 0.00 | 0.00 | 0.00 | 85 | 1018.1 |
| 20260905174818 | 75 | 245 | 0.0 | 3.5 | 0.00 | 0.00 | 0.00 | 85 | 1018.1 |
| 20260905174048 | 75 | 50 | 0.0 | 3.5 | 0.00 | 0.00 | 0.00 | 86 | 1018.1 |
| 20260905173818 | 75 | 94 | 0.0 | 2.6 | 0.00 | 0.00 | 0.00 | 86 | 1018.2 |
| 20260905173318 | 75 | 208 | 0.0 | 2.6 | 0.00 | 0.00 | 0.00 | 87 | 1018.3 |
| 20260905172544 | 75 | 222 | 0.0 | 2.6 | 0.00 | 0.00 | 0.00 | 88 | 1018.2 |
| 20260905172044 | 74 | 92 | 0.0 | 2.6 | 0.00 | 0.00 | 0.00 | 87 | 1018.1 |
| 20260905171544 | 74 | 159 | 0.0 | 2.6 | 0.00 | 0.00 | 0.00 | 88 | 1018.0 |
| 20260905171043 | 74 | 83 | 0.0 | 2.6 | 0.00 | 0.00 | 0.00 | 88 | 1018.0 |
| 20260905170542 | 74 | 112 | 0.0 | 2.6 | 0.00 | 0.00 | 0.00 | 88 | 1018.1 |
| 20260905170042 | 74 | 350 | 0.0 | 1.7 | 0.00 | 0.00 | 0.00 | 89 | 1018.2 |
| 20260905165541 | 74 | 90 | 0.0 | 1.7 | 0.00 | 0.00 | 0.00 | 89 | 1018.3 |
| 20260905165043 | 73 | 112 | 0.0 | 0.9 | 0.00 | 0.00 | 0.00 | 89 | 1018.4 |
| 20260905164542 | 73 | 103 | 0.0 | 0.0 | 0.00 | 0.00 | 0.00 | 91 | 1018.5 |
| 20260905164042 | 72 | 101 | 0.0 | 1.7 | 0.00 | 0.00 | 0.00 | 90 | 1018.4 |
| 20260905163814 | 72 | 121 | 0.0 | 1.7 | 0.00 | 0.00 | 0.00 | 91 | 1018.3 |
| 20260905163315 | 71 | 132 | 0.0 | 1.7 | 0.00 | 0.00 | 0.00 | 91 | 1018.2 |
| 20260905162541 | 71 | 55 | 0.0 | 1.7 | 0.00 | 0.00 | 0.00 | 91 | 1018.3 |
| 20260905162040 | 71 | 6 | 0.0 | 1.7 | 0.00 | 0.00 | 0.00 | 91 | 1018.3 |
| 20260905161541 | 71 | 105 | 0.0 | 1.7 | 0.00 | 0.00 | 0.00 | 91 | 1018.5 |
| 20260905161040 | 71 | 27 | 0.0 | 0.9 | 0.00 | 0.00 | 0.00 | 92 | 1018.6 |
| 20260905160538 | 71 | 27 | 0.0 | 1.7 | 0.00 | 0.00 | 0.00 | 92 | 1018.6 |
| 20260905160039 | 71 | 345 | 0.0 | 1.7 | 0.00 | 0.00 | 0.00 | 92 | 1018.6 |
| 20260905155535 | 71 | 120 | 0.0 | 0.9 | 0.00 | 0.00 | 0.00 | 93 | 1018.6 |
| 20260905155033 | 70 | 128 | 0.0 | 2.6 | 0.00 | 0.00 | 0.00 | 93 | 1018.5 |
| 20260905154532 | 70 | 132 | 0.0 | 2.6 | 0.00 | 0.00 | 0.00 | 93 | 1018.6 |
| 20260905154302 | 70 | 303 | 0.0 | 0.0 | 0.00 | 0.00 | 0.00 | 94 | 1018.5 |
| 20260905153531 | 69 | 302 | 0.0 | 0.9 | 0.00 | 0.00 | 0.00 | 95 | 1018.7 |
| 20260905153300 | 69 | 302 | 0.0 | 1.7 | 0.00 | 0.00 | 0.00 | 95 | 1018.6 |
| 20260905152529 | 68 | 329 | 0.9 | 1.7 | 0.00 | 0.00 | 0.00 | 95 | 1018.2 |
| 20260905152027 | 68 | 354 | 0.0 | 1.7 | 0.00 | 0.00 | 0.00 | 95 | 1017.9 |
| 20260905151527 | 68 | 32 | 0.0 | 0.9 | 0.00 | 0.00 | 0.00 | 96 | 1017.9 |
| 20260905151029 | 67 | 17 | 0.0 | 0.9 | 0.00 | 0.00 | 0.00 | 96 | 1017.9 |
| 20260905150758 | 67 | 6 | 0.0 | 1.7 | 0.00 | 0.00 | 0.00 | 96 | 1017.8 |
| 20260905150025 | 67 | 327 | 0.0 | 1.7 | 0.00 | 0.00 | 0.00 | 96 | 1017.8 |
| 20260905145525 | 67 | 5 | 0.0 | 1.7 | 0.00 | 0.00 | 0.00 | 96 | 1017.8 |
| 20260905145259 | 67 | 94 | 0.0 | 0.9 | 0.00 | 0.00 | 0.00 | 97 | 1017.8 |
| 20260905144526 | 67 | 0 | 0.0 | 0.9 | 0.00 | 0.00 | 0.00 | 96 | 1017.9 |
| 20260905144025 | 66 | 5 | 0.0 | 1.7 | 0.00 | 0.00 | 0.00 | 97 | 1017.9 |
| 20260905143527 | 66 | 5 | 0.0 | 1.7 | 0.00 | 0.00 | 0.00 | 97 | 1017.9 |
| 20260905143029 | 66 | 9 | 0.0 | 1.7 | 0.00 | 0.00 | 0.00 | 97 | 1018.0 |
| 20260905142528 | 66 | 106 | 0.0 | 0.9 | 0.00 | 0.00 | 0.00 | 97 | 1018.0 |
| 20260905142029 | 66 | 108 | 0.0 | 0.9 | 0.00 | 0.00 | 0.00 | 97 | 1018.1 |
| 20260905141530 | 66 | 108 | 0.0 | 0.0 | 0.00 | 0.00 | 0.00 | 97 | 1018.2 |
| 20260905141301 | 66 | 108 | 0.0 | 0.9 | 0.00 | 0.00 | 0.00 | 97 | 1018.2 |
| 20260905140525 | 66 | 108 | 0.0 | 0.9 | 0.00 | 0.00 | 0.00 | 97 | 1018.2 |
| 20260905140258 | 66 | 350 | 0.0 | 0.0 | 0.00 | 0.00 | 0.00 | 97 | 1018.3 |
| 20260905135757 | 65 | 350 | 0.0 | 0.0 | 0.00 | 0.00 | 0.00 | 97 | 1018.2 |
| 20260905135027 | 65 | 350 | 0.0 | 0.9 | 0.00 | 0.00 | 0.00 | 97 | 1018.2 |
| 20260905134527 | 65 | 349 | 0.0 | 0.9 | 0.00 | 0.00 | 0.00 | 97 | 1018.1 |
| 20260905134027 | 65 | 34 | 0.0 | 0.0 | 0.00 | 0.00 | 0.00 | 97 | 1018.0 |
| 20260905133523 | 65 | 34 | 0.0 | 0.0 | 0.00 | 0.00 | 0.00 | 97 | 1017.9 |
| 20260905133021 | 65 | 34 | 0.0 | 0.0 | 0.00 | 0.00 | 0.00 | 97 | 1017.9 |
| 20260905132753 | 65 | 118 | 0.0 | 2.6 | 0.00 | 0.00 | 0.00 | 97 | 1017.8 |
| 20260905132023 | 65 | 119 | 0.0 | 2.6 | 0.00 | 0.00 | 0.00 | 97 | 1017.7 |
| 20260905131522 | 65 | 359 | 0.0 | 0.9 | 0.00 | 0.00 | 0.00 | 97 | 1017.6 |
| 20260905131022 | 65 | 0 | 0.0 | 0.9 | 0.00 | 0.00 | 0.00 | 97 | 1017.4 |
| 20260905130522 | 65 | 359 | 0.0 | 0.9 | 0.00 | 0.00 | 0.00 | 97 | 1017.1 |
| 20260905130022 | 65 | 125 | 0.0 | 0.9 | 0.00 | 0.00 | 0.00 | 97 | 1016.9 |
| 20260905125753 | 65 | 128 | 0.0 | 0.9 | 0.00 | 0.00 | 0.00 | 97 | 1016.8 |
| 20260905125018 | 65 | 12 | 0.0 | 0.9 | 0.00 | 0.00 | 0.00 | 97 | 1016.8 |
| 20260905124518 | 65 | 15 | 0.0 | 0.9 | 0.00 | 0.00 | 0.00 | 97 | 1016.7 |
| 20260905124019 | 65 | 83 | 0.0 | 0.9 | 0.00 | 0.00 | 0.00 | 97 | 1016.5 |
| 20260905123518 | 65 | 356 | 0.0 | 0.9 | 0.00 | 0.00 | 0.00 | 97 | 1016.7 |
| 20260905123251 | 65 | 356 | 0.0 | 0.9 | 0.00 | 0.00 | 0.00 | 97 | 1016.6 |
| 20260905122517 | 65 | 345 | 0.0 | 0.9 | 0.00 | 0.00 | 0.00 | 97 | 1016.4 |
| 20260905122018 | 65 | 11 | 0.0 | 0.9 | 0.00 | 0.00 | 0.00 | 97 | 1016.4 |
| 20260905121518 | 64 | 11 | 0.0 | 0.9 | 0.00 | 0.00 | 0.00 | 97 | 1016.4 |
| 20260905121019 | 64 | 11 | 0.0 | 0.9 | 0.00 | 0.00 | 0.00 | 97 | 1016.5 |
| 20260905120514 | 64 | 12 | 0.0 | 0.0 | 0.00 | 0.00 | 0.00 | 97 | 1016.6 |
| 20260905120013 | 64 | 11 | 0.0 | 0.0 | 0.00 | 0.00 | 0.00 | 97 | 1016.8 |
| 20260905115744 | 64 | 11 | 0.0 | 0.9 | 0.00 | 0.00 | 0.00 | 97 | 1016.8 |
| 20260905115014 | 64 | 11 | 0.0 | 0.9 | 0.00 | 0.00 | 0.00 | 96 | 1016.7 |
| 20260905114747 | 64 | 356 | 0.0 | 0.0 | 0.00 | 0.00 | 0.00 | 96 | 1016.7 |
| 20260905114014 | 64 | 356 | 0.0 | 0.9 | 0.00 | 0.00 | 0.00 | 96 | 1016.7 |
| 20260905113513 | 64 | 356 | 0.0 | 0.9 | 0.00 | 0.00 | 0.00 | 96 | 1016.7 |
| 20260905113013 | 64 | 356 | 0.0 | 0.0 | 0.00 | 0.00 | 0.00 | 96 | 1016.7 |
| 20260905112515 | 64 | 356 | 0.0 | 0.0 | 0.00 | 0.00 | 0.00 | 96 | 1016.6 |
| 20260905112011 | 64 | 356 | 0.0 | 0.0 | 0.00 | 0.00 | 0.00 | 96 | 1016.7 |
| 20260905111509 | 64 | 356 | 0.0 | 0.0 | 0.00 | 0.00 | 0.00 | 96 | 1016.5 |
| 20260905111011 | 64 | 355 | 0.0 | 0.0 | 0.00 | 0.00 | 0.00 | 96 | 1016.3 |
| 20260905110510 | 64 | 356 | 0.0 | 0.0 | 0.00 | 0.00 | 0.00 | 96 | 1016.4 |
| 20260905110010 | 64 | 356 | 0.0 | 0.0 | 0.00 | 0.00 | 0.00 | 96 | 1016.3 |
| 20260905105509 | 64 | 356 | 0.0 | 0.9 | 0.00 | 0.00 | 0.00 | 96 | 1016.3 |
| 20260905105009 | 64 | 356 | 0.0 | 0.9 | 0.00 | 0.00 | 0.00 | 96 | 1016.3 |
| 20260905104511 | 64 | 356 | 0.0 | 0.0 | 0.00 | 0.00 | 0.00 | 96 | 1016.5 |
| 20260905104011 | 64 | 356 | 0.0 | 0.0 | 0.00 | 0.00 | 0.00 | 96 | 1016.4 |
| 20260905103735 | 64 | 355 | 0.0 | 0.0 | 0.00 | 0.00 | 0.00 | 96 | 1016.4 |
| 20260905103005 | 64 | 356 | 0.0 | 0.0 | 0.00 | 0.00 | 0.00 | 96 | 1016.3 |
| 20260905102503 | 64 | 356 | 0.0 | 0.0 | 0.00 | 0.00 | 0.00 | 96 | 1016.3 |
| 20260905102003 | 64 | 356 | 0.0 | 0.0 | 0.00 | 0.00 | 0.00 | 96 | 1016.2 |
| 20260905101503 | 64 | 356 | 0.0 | 0.9 | 0.00 | 0.00 | 0.00 | 96 | 1015.8 |
| 20260905101006 | 64 | 356 | 0.0 | 0.9 | 0.00 | 0.00 | 0.00 | 96 | 1015.7 |
| 20260905100501 | 64 | 356 | 0.0 | 0.9 | 0.00 | 0.00 | 0.00 | 96 | 1015.7 |
| 20260905095957 | 64 | 356 | 0.0 | 0.9 | 0.00 | 0.00 | 0.00 | 96 | 1015.7 |
| 20260905095455 | 64 | 356 | 0.0 | 0.9 | 0.00 | 0.00 | 0.00 | 96 | 1015.6 |
| 20260905094955 | 64 | 356 | 0.0 | 0.9 | 0.00 | 0.00 | 0.00 | 96 | 1015.5 |
| 20260905094455 | 64 | 354 | 0.0 | 0.9 | 0.00 | 0.00 | 0.00 | 96 | 1015.4 |
| 20260905093954 | 64 | 356 | 0.0 | 0.9 | 0.00 | 0.00 | 0.00 | 96 | 1015.5 |
| 20260905093451 | 64 | 353 | 0.0 | 0.9 | 0.00 | 0.00 | 0.00 | 95 | 1015.3 |
| 20260905092720 | 64 | 354 | 0.0 | 2.6 | 0.00 | 0.00 | 0.00 | 95 | 1015.4 |
| 20260905091945 | 65 | 11 | 0.0 | 2.6 | 0.00 | 0.00 | 0.00 | 95 | 1015.4 |
| 20260905091446 | 65 | 338 | 0.0 | 0.9 | 0.00 | 0.00 | 0.00 | 95 | 1015.5 |
| 20260905091217 | 65 | 354 | 0.0 | 2.6 | 0.00 | 0.00 | 0.00 | 95 | 1015.7 |
| 20260905090447 | 65 | 354 | 0.0 | 2.6 | 0.00 | 0.00 | 0.00 | 95 | 1015.8 |
| 20260905085943 | 65 | 349 | 0.0 | 1.7 | 0.00 | 0.00 | 0.00 | 95 | 1015.9 |
| 20260905085715 | 65 | 245 | 0.0 | 0.9 | 0.00 | 0.00 | 0.00 | 95 | 1016.1 |
| 20260905084941 | 65 | 341 | 0.0 | 1.7 | 0.00 | 0.00 | 0.00 | 95 | 1016.1 |
| 20260905084441 | 65 | 25 | 0.0 | 1.7 | 0.00 | 0.00 | 0.00 | 95 | 1016.2 |
| 20260905083939 | 65 | 96 | 0.0 | 1.7 | 0.00 | 0.00 | 0.00 | 95 | 1016.2 |
| 20260905083435 | 65 | 323 | 0.0 | 1.7 | 0.00 | 0.00 | 0.00 | 95 | 1016.2 |
| 20260905082935 | 65 | 356 | 0.0 | 1.7 | 0.00 | 0.00 | 0.00 | 95 | 1016.2 |
| 20260905082439 | 65 | 356 | 0.0 | 1.7 | 0.00 | 0.00 | 0.00 | 95 | 1016.2 |
| 20260905081933 | 65 | 342 | 0.0 | 1.7 | 0.00 | 0.00 | 0.00 | 95 | 1016.2 |
| 20260905081432 | 65 | 1 | 0.0 | 1.7 | 0.00 | 0.00 | 0.00 | 95 | 1016.3 |
| 20260905080929 | 65 | 35 | 0.0 | 1.7 | 0.00 | 0.00 | 0.00 | 95 | 1016.3 |
| 20260905080701 | 65 | 45 | 0.0 | 1.7 | 0.00 | 0.00 | 0.00 | 95 | 1016.3 |
| 20260905075928 | 65 | 356 | 0.0 | 1.7 | 0.00 | 0.00 | 0.00 | 95 | 1016.3 |
| 20260905075425 | 65 | 359 | 0.0 | 0.9 | 0.00 | 0.00 | 0.00 | 95 | 1016.4 |
| 20260905074926 | 65 | 358 | 0.0 | 0.9 | 0.00 | 0.00 | 0.00 | 95 | 1016.4 |
| 20260905074419 | 65 | 6 | 0.0 | 0.9 | 0.00 | 0.00 | 0.00 | 95 | 1016.2 |
| 20260905073915 | 65 | 6 | 0.0 | 3.5 | 0.00 | 0.00 | 0.00 | 95 | 1016.4 |
| 20260905073909 | 65 | 5 | 0.9 | 3.5 | 0.00 | 0.00 | 0.00 | 94 | 1016.4 |
| 20260905072900 | 65 | 343 | 0.0 | 2.6 | 0.00 | 0.00 | 0.00 | 94 | 1016.3 |
| 20260905072626 | 65 | 89 | 0.0 | 1.7 | 0.00 | 0.00 | 0.00 | 94 | 1016.2 |
| 20260905071848 | 65 | 356 | 0.0 | 0.9 | 0.00 | 0.00 | 0.00 | 94 | 1016.1 |
| 20260905071342 | 65 | 354 | 0.0 | 1.7 | 0.00 | 0.00 | 0.00 | 94 | 1016.1 |
| 20260905071106 | 65 | 354 | 0.0 | 1.7 | 0.00 | 0.00 | 0.00 | 94 | 1016.0 |
| 20260905070330 | 65 | 145 | 0.0 | 1.7 | 0.00 | 0.00 | 0.00 | 94 | 1016.1 |
| 20260905070056 | 66 | 23 | 0.0 | 1.7 | 0.00 | 0.00 | 0.00 | 94 | 1016.1 |
| 20260905065318 | 66 | 9 | 0.0 | 1.7 | 0.00 | 0.00 | 0.00 | 94 | 1016.0 |
| 20260905064812 | 66 | 46 | 0.0 | 0.9 | 0.00 | 0.00 | 0.00 | 94 | 1016.1 |
| 20260905064306 | 66 | 49 | 0.0 | 0.0 | 0.00 | 0.00 | 0.00 | 94 | 1016.2 |
| 20260905063800 | 66 | 4 | 0.0 | 1.7 | 0.00 | 0.00 | 0.00 | 94 | 1016.1 |
| 20260905063254 | 66 | 4 | 0.0 | 1.7 | 0.00 | 0.00 | 0.00 | 94 | 1016.1 |
| 20260905062748 | 66 | 340 | 0.0 | 0.9 | 0.00 | 0.00 | 0.00 | 94 | 1016.1 |
| 20260905062242 | 66 | 340 | 0.0 | 0.9 | 0.00 | 0.00 | 0.00 | 94 | 1016.1 |
| 20260905061736 | 66 | 314 | 0.0 | 0.9 | 0.00 | 0.00 | 0.00 | 94 | 1016.2 |
| 20260905061230 | 66 | 314 | 0.0 | 1.7 | 0.00 | 0.00 | 0.00 | 94 | 1016.2 |
| 20260905060724 | 66 | 314 | 0.0 | 1.7 | 0.00 | 0.00 | 0.00 | 94 | 1016.2 |
| 20260905060218 | 66 | 351 | 0.0 | 1.7 | 0.00 | 0.00 | 0.00 | 94 | 1016.1 |
| 20260905055712 | 66 | 5 | 0.0 | 1.7 | 0.00 | 0.00 | 0.00 | 94 | 1016.3 |
| 20260905055436 | 66 | 19 | 0.0 | 1.7 | 0.00 | 0.00 | 0.00 | 94 | 1016.2 |
| 20260905054700 | 66 | 37 | 0.0 | 1.7 | 0.00 | 0.00 | 0.00 | 94 | 1016.2 |
| 20260905054154 | 66 | 92 | 0.0 | 0.9 | 0.00 | 0.00 | 0.00 | 94 | 1016.1 |
| 20260905053649 | 66 | 354 | 0.0 | 0.9 | 0.00 | 0.00 | 0.00 | 94 | 1015.9 |
| 20260905053412 | 66 | 352 | 0.0 | 0.9 | 0.00 | 0.00 | 0.00 | 94 | 1015.9 |
| 20260905052636 | 66 | 351 | 0.0 | 0.9 | 0.00 | 0.00 | 0.00 | 94 | 1015.9 |
| 20260905052128 | 66 | 349 | 0.0 | 0.9 | 0.00 | 0.00 | 0.00 | 94 | 1015.7 |
| 20260905051624 | 66 | 351 | 0.0 | 1.7 | 0.00 | 0.00 | 0.00 | 94 | 1015.8 |
| 20260905051118 | 66 | 351 | 0.0 | 1.7 | 0.00 | 0.00 | 0.00 | 94 | 1015.8 |
| 20260905050612 | 66 | 312 | 0.0 | 1.7 | 0.00 | 0.00 | 0.00 | 94 | 1015.9 |
| 20260905050105 | 66 | 82 | 0.0 | 0.9 | 0.00 | 0.00 | 0.00 | 94 | 1015.9 |
| 20260905045559 | 66 | 4 | 0.0 | 2.6 | 0.00 | 0.00 | 0.00 | 93 | 1015.8 |
| 20260905045053 | 66 | 347 | 0.0 | 4.3 | 0.00 | 0.00 | 0.00 | 93 | 1015.9 |
| 20260905044546 | 66 | 263 | 0.0 | 4.3 | 0.00 | 0.00 | 0.00 | 93 | 1015.8 |
| 20260905044041 | 65 | 0 | 0.0 | 1.7 | 0.00 | 0.00 | 0.00 | 93 | 1015.8 |
| 20260905043535 | 65 | 15 | 0.0 | 1.7 | 0.00 | 0.00 | 0.00 | 93 | 1015.8 |
| 20260905043031 | 65 | 13 | 0.0 | 1.7 | 0.00 | 0.00 | 0.00 | 93 | 1015.7 |
| 20260905042522 | 65 | 1 | 0.0 | 1.7 | 0.00 | 0.00 | 0.00 | 93 | 1015.7 |
| 20260905042247 | 65 | 288 | 0.0 | 1.7 | 0.00 | 0.00 | 0.00 | 92 | 1015.7 |
| 20260905041741 | 66 | 358 | 0.0 | 1.7 | 0.00 | 0.00 | 0.00 | 92 | 1015.7 |
| 20260905041235 | 66 | 350 | 0.0 | 0.0 | 0.00 | 0.00 | 0.00 | 92 | 1015.8 |
| 20260905040459 | 66 | 348 | 0.0 | 0.0 | 0.00 | 0.00 | 0.00 | 92 | 1016.0 |
| 20260905035953 | 66 | 350 | 0.0 | 0.9 | 0.00 | 0.00 | 0.00 | 92 | 1015.9 |
| 20260905035447 | 66 | 350 | 0.0 | 0.9 | 0.00 | 0.00 | 0.00 | 91 | 1015.8 |
| 20260905034941 | 67 | 341 | 0.0 | 0.9 | 0.00 | 0.00 | 0.00 | 91 | 1015.8 |
| 20260905034434 | 67 | 343 | 0.0 | 0.9 | 0.00 | 0.00 | 0.00 | 91 | 1015.8 |
| 20260905033929 | 67 | 1 | 0.0 | 0.9 | 0.00 | 0.00 | 0.00 | 91 | 1015.7 |
| 20260905033422 | 67 | 1 | 0.0 | 0.9 | 0.00 | 0.00 | 0.00 | 90 | 1015.5 |
| 20260905032917 | 67 | 3 | 0.0 | 0.0 | 0.00 | 0.00 | 0.00 | 90 | 1015.6 |
| 20260905032411 | 67 | 4 | 0.0 | 0.9 | 0.00 | 0.00 | 0.00 | 90 | 1015.7 |
| 20260905031905 | 68 | 5 | 0.0 | 0.9 | 0.00 | 0.00 | 0.00 | 90 | 1015.6 |
| 20260905031359 | 68 | 0 | 0.0 | 1.7 | 0.00 | 0.00 | 0.00 | 89 | 1015.7 |
| 20260905030853 | 68 | 352 | 0.0 | 1.7 | 0.00 | 0.00 | 0.00 | 89 | 1015.6 |
| 20260905030347 | 68 | 341 | 0.0 | 1.7 | 0.00 | 0.00 | 0.00 | 89 | 1015.6 |
| 20260905030113 | 69 | 24 | 0.0 | 0.9 | 0.00 | 0.00 | 0.00 | 89 | 1015.6 |
| 20260905025334 | 69 | 16 | 0.0 | 3.5 | 0.00 | 0.00 | 0.00 | 88 | 1015.5 |
| 20260905025059 | 69 | 0 | 0.0 | 3.5 | 0.00 | 0.00 | 0.00 | 88 | 1015.5 |
| 20260905024555 | 69 | 294 | 0.0 | 1.7 | 0.00 | 0.00 | 0.00 | 88 | 1015.5 |
| 20260905024050 | 70 | 11 | 0.0 | 1.7 | 0.00 | 0.00 | 0.00 | 87 | 1015.5 |
| 20260905023310 | 70 | 308 | 0.0 | 0.9 | 0.00 | 0.00 | 0.00 | 87 | 1015.4 |
| 20260905023038 | 70 | 26 | 0.0 | 0.9 | 0.00 | 0.00 | 0.00 | 87 | 1015.3 |
| 20260905022801 | 70 | 359 | 0.0 | 2.6 | 0.00 | 0.00 | 0.00 | 86 | 1015.2 |
| 20260905022033 | 71 | 13 | 0.0 | 2.6 | 0.00 | 0.00 | 0.00 | 86 | 1015.2 |
| 20260905021247 | 71 | 359 | 0.0 | 1.7 | 0.00 | 0.00 | 0.00 | 85 | 1015.1 |
| 20260905020741 | 71 | 354 | 0.0 | 1.7 | 0.00 | 0.00 | 0.00 | 85 | 1015.1 |
| 20260905020235 | 71 | 9 | 0.0 | 1.7 | 0.00 | 0.00 | 0.00 | 84 | 1015.1 |
| 20260905015729 | 72 | 25 | 0.0 | 1.7 | 0.00 | 0.00 | 0.00 | 84 | 1015.1 |
| 20260905015223 | 72 | 9 | 0.0 | 1.7 | 0.00 | 0.00 | 0.00 | 83 | 1015.0 |
| 20260905014717 | 72 | 354 | 0.0 | 1.7 | 0.00 | 0.00 | 0.00 | 83 | 1014.9 |
| 20260905014211 | 73 | 25 | 0.0 | 1.7 | 0.00 | 0.00 | 0.00 | 83 | 1014.9 |
| 20260905013704 | 73 | 345 | 0.0 | 1.7 | 0.00 | 0.00 | 0.00 | 82 | 1014.8 |
| 20260905013159 | 73 | 340 | 0.0 | 1.7 | 0.00 | 0.00 | 0.00 | 82 | 1014.7 |
| 20260905012653 | 74 | 5 | 0.0 | 2.6 | 0.00 | 0.00 | 0.00 | 82 | 1014.8 |
| 20260905012147 | 74 | 1 | 0.0 | 2.6 | 0.00 | 0.00 | 0.00 | 81 | 1014.6 |
| 20260905011643 | 74 | 356 | 0.0 | 0.9 | 0.00 | 0.00 | 0.00 | 81 | 1014.6 |
| 20260905011638 | 75 | 356 | 0.0 | 2.6 | 0.00 | 0.00 | 0.00 | 80 | 1014.4 |
| 20260905010629 | 75 | 356 | 0.0 | 2.6 | 0.00 | 0.00 | 0.00 | 79 | 1014.4 |
| 20260905010123 | 76 | 5 | 0.0 | 2.6 | 0.00 | 0.00 | 0.00 | 78 | 1014.4 |
| 20260905005616 | 76 | 11 | 0.0 | 2.6 | 0.00 | 0.00 | 0.00 | 78 | 1014.3 |
| 20260905005111 | 76 | 349 | 0.0 | 1.7 | 0.00 | 0.00 | 0.00 | 77 | 1014.2 |
| 20260905004606 | 77 | 22 | 0.0 | 1.7 | 0.00 | 0.00 | 0.00 | 76 | 1014.2 |
| 20260905004330 | 77 | 4 | 0.0 | 3.5 | 0.00 | 0.00 | 0.00 | 76 | 1014.2 |
| 20260905003552 | 78 | 9 | 0.0 | 3.5 | 0.00 | 0.00 | 0.00 | 75 | 1014.3 |
| 20260905003047 | 78 | 7 | 0.0 | 2.6 | 0.00 | 0.00 | 0.00 | 75 | 1014.2 |
| 20260905002541 | 79 | 1 | 0.0 | 2.6 | 0.00 | 0.00 | 0.00 | 74 | 1014.2 |
| 20260905002035 | 79 | 211 | 0.0 | 1.7 | 0.00 | 0.00 | 0.00 | 74 | 1014.1 |
| 20260905001529 | 80 | 18 | 0.0 | 0.9 | 0.00 | 0.00 | 0.00 | 73 | 1013.9 |
| 20260905001024 | 80 | 4 | 0.0 | 1.7 | 0.00 | 0.00 | 0.00 | 72 | 1013.8 |
| 20260905001019 | 81 | 347 | 0.0 | 1.7 | 0.00 | 0.00 | 0.00 | 72 | 1013.7 |
| 20260905000014 | 81 | 350 | 0.0 | 0.0 | 0.00 | 0.00 | 0.00 | 72 | 1013.7 |
| 20260904235504 | 81 | 350 | 0.0 | 0.0 | 0.00 | 0.00 | 0.00 | 71 | 1013.6 |
| 20260904234959 | 82 | 350 | 0.0 | 0.0 | 0.00 | 0.00 | 0.00 | 71 | 1013.6 |
| 20260904234452 | 82 | 356 | 0.0 | 1.7 | 0.00 | 0.00 | 0.00 | 70 | 1013.6 |
| 20260904234219 | 83 | 12 | 0.0 | 1.7 | 0.00 | 0.00 | 0.00 | 70 | 1013.7 |
| 20260904233441 | 83 | 353 | 0.0 | 1.7 | 0.00 | 0.00 | 0.00 | 68 | 1013.6 |
| 20260904232935 | 83 | 11 | 0.0 | 1.7 | 0.00 | 0.00 | 0.00 | 68 | 1013.6 |
| 20260904232429 | 84 | 352 | 0.0 | 1.7 | 0.00 | 0.00 | 0.00 | 68 | 1013.6 |
| 20260904231923 | 84 | 5 | 0.0 | 2.6 | 0.00 | 0.00 | 0.00 | 66 | 1013.6 |
| 20260904231417 | 85 | 19 | 0.0 | 2.6 | 0.00 | 0.00 | 0.00 | 66 | 1013.5 |
| 20260904230917 | 85 | 334 | 0.9 | 2.6 | 0.00 | 0.00 | 0.00 | 66 | 1013.4 |
| 20260904230417 | 85 | 32 | 0.9 | 2.6 | 0.00 | 0.00 | 0.00 | 66 | 1013.4 |
| 20260904225917 | 85 | 356 | 0.0 | 1.7 | 0.00 | 0.00 | 0.00 | 65 | 1013.5 |
| 20260904225649 | 85 | 343 | 0.9 | 2.6 | 0.00 | 0.00 | 0.00 | 64 | 1013.5 |
| 20260904224917 | 85 | 12 | 0.9 | 3.5 | 0.00 | 0.00 | 0.00 | 65 | 1013.4 |
| 20260904224414 | 86 | 358 | 0.9 | 3.5 | 0.00 | 0.00 | 0.00 | 64 | 1013.4 |
| 20260904223915 | 86 | 352 | 0.9 | 3.5 | 0.00 | 0.00 | 0.00 | 64 | 1013.2 |
| 20260904223415 | 86 | 356 | 0.9 | 2.6 | 0.00 | 0.00 | 0.00 | 63 | 1013.2 |
| 20260904222913 | 87 | 353 | 0.0 | 2.6 | 0.00 | 0.00 | 0.00 | 62 | 1013.1 |
| 20260904222411 | 87 | 198 | 0.0 | 2.6 | 0.00 | 0.00 | 0.00 | 63 | 1013.0 |
| 20260904221909 | 87 | 51 | 0.0 | 2.6 | 0.00 | 0.00 | 0.00 | 62 | 1013.0 |
| 20260904221407 | 87 | 19 | 0.0 | 2.6 | 0.00 | 0.00 | 0.00 | 64 | 1013.0 |
| 20260904220908 | 87 | 26 | 0.0 | 3.5 | 0.00 | 0.00 | 0.00 | 64 | 1012.9 |
| 20260904220407 | 87 | 333 | 0.9 | 3.5 | 0.00 | 0.00 | 0.00 | 64 | 1012.8 |
| 20260904215905 | 87 | 1 | 0.9 | 2.6 | 0.00 | 0.00 | 0.00 | 63 | 1012.7 |
| 20260904215407 | 87 | 339 | 0.0 | 2.6 | 0.00 | 0.00 | 0.00 | 64 | 1012.8 |
| 20260904214906 | 87 | 354 | 0.0 | 2.6 | 0.00 | 0.00 | 0.00 | 63 | 1012.7 |
| 20260904214407 | 88 | 105 | 0.0 | 1.7 | 0.00 | 0.00 | 0.00 | 65 | 1012.7 |
| 20260904213901 | 87 | 319 | 0.0 | 1.7 | 0.00 | 0.00 | 0.00 | 64 | 1012.7 |
| 20260904213355 | 87 | 358 | 0.0 | 0.9 | 0.00 | 0.00 | 0.00 | 65 | 1012.8 |
| 20260904212854 | 87 | 350 | 0.0 | 0.9 | 0.00 | 0.00 | 0.00 | 63 | 1012.8 |
| 20260904212355 | 87 | 0 | 0.0 | 1.7 | 0.00 | 0.00 | 0.00 | 66 | 1012.7 |
| 20260904212122 | 87 | 4 | 0.0 | 2.6 | 0.00 | 0.00 | 0.00 | 65 | 1012.7 |
| 20260904211352 | 87 | 1 | 0.0 | 2.6 | 0.00 | 0.00 | 0.00 | 68 | 1012.7 |
| 20260904210850 | 87 | 339 | 0.0 | 1.7 | 0.00 | 0.00 | 0.00 | 66 | 1012.8 |
| 20260904210347 | 86 | 84 | 0.0 | 2.6 | 0.00 | 0.00 | 0.00 | 66 | 1012.9 |
| 20260904205845 | 86 | 350 | 0.0 | 2.6 | 0.00 | 0.00 | 0.00 | 65 | 1012.9 |
| 20260904205348 | 86 | 98 | 0.0 | 2.6 | 0.00 | 0.00 | 0.00 | 67 | 1012.9 |
| 20260904204846 | 85 | 356 | 0.0 | 2.6 | 0.00 | 0.00 | 0.00 | 67 | 1012.9 |
| 20260904204345 | 86 | 331 | 0.0 | 3.5 | 0.00 | 0.00 | 0.00 | 66 | 1012.9 |
| 20260904203846 | 85 | 98 | 0.9 | 3.5 | 0.00 | 0.00 | 0.00 | 69 | 1012.9 |
| 20260904203346 | 85 | 335 | 0.9 | 2.6 | 0.00 | 0.00 | 0.00 | 66 | 1012.9 |
| 20260904202843 | 85 | 15 | 0.9 | 2.6 | 0.00 | 0.00 | 0.00 | 66 | 1012.9 |